Miscellaneous Local Product
Issued by NWS North Platte, NE

Home | Current Version | Previous Version | Text Only | Print | Product List | Glossary On
Versions: 1 2 3 4 5 6 7 8 9 10 11 12 13 14 15 16 17 18 19 20 21 22 23 24 25 26 27 28 29 30 31 32 33 34 35 36 37 38 39 40 41 42 43 44 45 46 47 48 49 50
219
AXUS43 KLBF 072110
MISLBF


WESTERN AND NORTH CENTRAL NEBRASKA HOURLY WEATHER ROUNDUP
NATIONAL WEATHER SERVICE NORTH PLATTE NE
300 PM CST SUN FEB 07 2016

NOTE: "FAIR" INDICATES FEW OR NO CLOUDS BELOW 12,000 FEET WITH NO
SIGNIFICANT WEATHER AND/OR OBSTRUCTIONS TO VISIBILITY.

NOTE: STATIONS NOT REPORTING VARIABLES SUCH AS SKY/WEATHER OR
PRESSURE ARE PROVIDED BY THE NEBRASKA DEPARTMENT OF
ROADS...RAWS...AND APRS NETWORKS...AND ARE NOT UNDER
NATIONAL WEATHER SERVICE QUALITY CONTROL.

...OBSERVATIONS IN AND NEAR THE EASTERN PANHANDLE OF NEBRASKA...

CITY           SKY/WX    TMP DP  RH WIND       PRES   REMARKS
PINE RIDGE     MOSUNNY   39   3  22 NW28G43   30.17S WCI  28
CHADRON        SUNNY     39  14  36 NW30G43   30.24S WCI  27
ALLIANCE       SUNNY     33  15  47 NW31G38   30.21F WCI  19
SIDNEY         CLOUDY    32  16  51 NW31G40   30.26S WCI  17
BIG SPRINGS      N/A     36  24  63 NW14        N/A  WCI  27
$$

...OBSERVATIONS IN NORTH CENTRAL NEBRASKA...

CITY           SKY/WX    TMP DP  RH WIND       PRES   REMARKS
VALENTINE      CLOUDY    37  16  42 NW28G49   30.05S WCI  25
THEDFORD       MOSUNNY   42  13  31 NW41G59   30.08S
AINSWORTH      PTSUNNY   38  14  37 NW36G49   30.03S WCI  25
O`NEILL        CLOUDY    35  26  70 NW30G38   29.99S WCI  21
ORD            CLOUDY    38  21  50 NW32G46   30.02S WCI  25
BROKEN BOW     CLOUDY    40  15  36 NW36G58   30.06S WCI  27
BUTTE            N/A     36  27  68 NW35G54     N/A  WCI  22
CHAMBERS         N/A     36  23  59 N13G30      N/A  WCI  27
EWING            N/A     33  30  88 NW17G28     N/A  WCI  22
$$

...OBSERVATIONS IN SOUTHWEST NEBRASKA AND FAR NORTHEAST COLORADO...

CITY           SKY/WX    TMP DP  RH WIND       PRES   REMARKS
WRAY           MOCLDY    37  20  51 NW25G37   30.26S WCI  25
HOLYOKE        FAIR      37  23  56 NW21G29   30.26S WCI  27
IMPERIAL       MOSUNNY   37  19  48 NW25G37   30.23F WCI  25
OGALLALA       SUNNY     35  17  47 NW28G38   30.21S WCI  22
NORTH PLATTE   SUNNY     39  18  42 NW31G40   30.14F WCI  27
MCCOOK         SUNNY     40  23  50 NW28G38   30.20S WCI  29
LEXINGTON      SUNNY     40  22  47 NW23G35   30.12S WCI  30
PAXTON           N/A     38  24  57 W16         N/A  WCI  29
STAPLETON        N/A     39  16  40 SW7G17      N/A  WCI  34
GOTHENBURG       N/A     40  18  40 NW13        N/A  WCI  32
CALLAWAY         N/A     39  15  38 NW26        N/A  WCI  28
$$

...OBSERVATIONS IN CENTRAL LINCOLN COUNTY AREA...

CITY           SKY/WX    TMP DP  RH WIND       PRES   REMARKS
N.P. AIRPORT   SUNNY     39  18  42 NW31G40   30.14F WCI  27
N.P. DOWNTOWN    N/A     39  19  45 NW16G26     N/A  WCI  30
N.P. SOUTHEAST   N/A     40  17  40 NW12G26     N/A  WCI  33
N.P. HILLCREST   N/A     39  19  45 NW29G40     N/A  WCI  27
$$

...SOME OBSERVATIONS FROM AROUND THE REGION...

CITY           SKY/WX    TMP DP  RH WIND       PRES   REMARKS
DENVER         PTSUNNY   29  21  72 E10       30.29F WCI  20
LARAMIE        MOSUNNY   30  20  66 NW18G28   30.24F WCI  18
CHEYENNE       SUNNY     30  17  58 N24G40    30.23F WCI  16
SCOTTSBLUFF    CLOUDY    34  14  43 NW32G44   30.28F WCI  20
RAPID CITY     SUNNY     39   7  26 NW45G60   30.15S WCI  25
BISMARCK       CLOUDY    34  18  52 NW31G54   30.00R WCI  20
PIERRE         PTSUNNY   39  19  44 NW32G49   29.98R WCI  27
WINNER         CLOUDY    38  23  55 NW32G38   30.00R WCI  25
SIOUX FALLS    CLOUDY    34  26  72 NW25G41   29.82R WCI  21
OMAHA          PTSUNNY   43  23  45 W20G35    29.93F
GRAND ISLAND   CLOUDY    39  20  46 NW37G47   30.06R WCI  26
KANSAS CITY    PTSUNNY   50  25  37 NW23G31   30.00F
WICHITA        MOSUNNY   55  20  25 N24G35    30.16R
OKLAHOMA CITY  MOSUNNY   59  24  26 N20       30.14S
LIBERAL        SUNNY     52  19  28 N28G36    30.27R
HAYS           PTSUNNY   45  23  42 NW25G33   30.20F
GOODLAND       PTSUNNY   37  19  48 NW24      30.27S WCI  26
$$




USA.gov is the U.S. government's official web portal to all federal, state and local government web resources and services.